CAPE
844 769 983 974 1004 1133 1093 1051 992 964 890 830 846 914 1013 1090 1009 868 710 891 806 1102 1367 1734 2402 2007 2235 2397 2389 2294 2430 2464 2462 2522 2645 2657 2619 2268 2009 1960 1931 1921 2042 2432 2773 3107 3514 3897 4124 4101 3936 4048 4209 4075 4024 3878 3695 3691 3341 3266 3272 3489 2516 2555 2407 2282 2354 2322 2296 2276 2283 2423 2447 2452
1193 956 936 1026 1156 1147 1140 1190 1154 1086 1107 977 767 681 772 948 935 963 904 1091 880 994 1085 1381 1871 2183 2288 2199 2173 2125 2361 2326 2441 2680 2590 2604 2678 2340 2053 1957 1926 1919 1893 1859 1912 2166 2613 3083 3554 3905 4124 4250 4363 4332 4364 4373 4198 3939 3701 3687 3358 3185 3066 2865 2483 2460 2383 2323 2255 2227 2253 2374 2382 2278
1134 1144 1070 989 950 991 1155 1221 1154 1368 1344 1160 874 798 796 802 924 972 1119 1024 990 836 1024 1264 1594 1761 2118 2297 2235 2188 2274 2319 2244 2535 2700 2619 2452 2285 2255 2058 1980 1918 1864 1829 1802 1801 2153 2707 3081 3399 3793 3893 4034 4222 4334 4423 4384 4310 4157 3845 3730 3358 3398 2845 2611 2554 2543 2525 2460 2382 2327 2289 2329 2305
1115 1069 971 934 987 1102 1238 1186 1112 1166 1303 1259 1114 932 947 798 755 831 801 955 1025 905 887 924 939 1095 1398 1794 2170 2488 2554 2425 2228 2562 2621 2709 2352 2484 2580 2266 2101 2017 1899 1840 1837 1866 1947 2172 2681 3056 3401 3694 3856 4140 3980 4150 4365 4439 4306 4093 3886 3782 3312 2989 2692 2610 2553 2519 2500 2462 2394 2326 2222 2123
1484 1420 1391 1286 1305 1242 1100 1073 1066 1117 1208 1219 1195 1194 1124 1069 1031 944 884 924 939 878 801 753 860 1012 1048 1332 1910 2308 2623 2869 2705 2466 2732 2800 2702 2755 2758 2798 2325 2160 2102 2038 2051 2129 2232 2246 2188 2338 2846 3132 3476 3700 3887 3985 3978 4034 4093 4018 3856 3633 3482 3184 2798 2612 2535 2504 2480 2460 2424 2282 2108 2030
1416 1512 1506 1521 1544 1578 1569 1427 1286 1282 1154 1174 1154 1059 1153 1062 1034 1199 940 807 838 802 918 920 964 980 1170 1175 1713 2250 2380 2766 2877 2902 2886 2808 2882 2872 2876 2894 2886 2332 2267 2264 2281 2317 2294 2218 2149 2113 2119 2232 2797 3245 3564 3646 3682 3651 3566 3514 3494 3438 3367 3227 2992 2751 2615 2545 2475 2440 2418 2341 2195 2032
1327 1203 1406 1430 1423 1380 1441 1540 1530 1480 1406 1333 1185 1097 1115 1196 1157 1047 1009 735 714 862 772 852 832 782 1328 1531 1714 2139 2266 2519 2725 2869 2823 2902 2914 2834 2787 2842 2861 2396 2283 2272 2282 2268 2230 2192 2180 2174 2174 2142 2101 2151 2362 2803 3144 3280 3300 3284 3231 3183 3118 3063 2941 2774 2610 2505 2453 2430 2399 2292 2104 1881
1337 1332 1421 1285 1274 1359 1367 1366 1338 1366 1338 1265 1289 1300 1259 1164 1092 1135 1132 1006 820 848 811 773 768 1036 1081 1516 1756 1905 2174 2449 2696 2765 2919 2868 2870 2924 2926 2807 2847 2569 2282 2277 2272 2255 2242 2245 2259 2246 2183 2134 2151 2163 2129 2231 2324 2414 2744 2942 3016 3029 3003 2957 2877 2760 2637 2465 2297 2263 2317 2256 2041 1886
1338 1318 1411 1352 1322 1371 1374 1354 1255 1256 1321 1327 1261 1173 1223 1265 1256 1103 1115 1116 1075 998 861 831 821 1060 1243 1522 1768 2148 2226 2632 2753 2844 2738 2844 2794 2918 2847 2922 2924 2462 2369 2346 2329 2324 2332 2326 2288 2220 2178 2178 2191 2136 2186 2255 2292 2290 2254 2250 2374 2612 2747 2802 2794 2757 2693 2635 2558 2464 2433 2343 2134 2078
1164 1341 1418 1482 1547 1464 1423 1420 1424 1463 1418 1376 1266 1184 1171 1230 1246 1272 1220 1131 1010 962 926 889 944 907 846 1260 1551 2009 2399 2342 2565 2572 2755 2784 2735 2677 2622 2674 2875 2941 2783 2609 2381 2366 2337 2287 2218 2216 2263 2304 2264 2257 2255 2237 2181 2153 2170 2208 2232 2227 2232 2384 2529 2582 2591 2566 2468 2327 2238 2162 2094 2119
1184 1270 1384 1522 1510 1516 1541 1484 1432 1459 1357 1345 1270 1248 1210 1120 1099 1159 1262 1213 1006 915 866 836 780 828 1010 1062 995 1460 2133 2660 2512 2490 2678 2692 2883 2768 2713 2965 2918 2929 2910 2641 2435 2452 2398 2377 2364 2365 2383 2398 2377 2318 2198 2231 2261 2200 2214 2244 2185 2144 2114 2030 2073 2072 2091 2120 2095 1975 1872 1932 1842 1817
1211 1250 1384 1476 1532 1566 1541 1577 1546 1522 1458 1415 1290 1153 1118 1101 1046 1165 1269 1335 1229 1042 966 926 852 803 890 897 1291 1628 2014 2493 2458 2293 2378 2514 2654 2791 2846 2836 3144 3121 3019 3256 3133 2674 2598 2581 2512 2500 2505 2506 2451 2397 2430 2502 2474 2375 2318 2184 2303 2340 2227 2012 1892 1986 2070 2079 2046 2012 1980 1924 1772 1451
1327 1368 1340 1349 1425 1548 1749 1696 1709 1556 1325 1282 1326 1450 1398 1377 1374 1320 1279 1228 1342 1224 1062 1018 933 901 874 862 1118 1590 1826 2066 2157 2670 2317 2549 2547 2716 2701 2742 2613 2939 2934 2898 2862 3149 3342 3452 3156 2666 2481 2518 2578 2598 2584 2528 2439 2334 2305 2408 2394 2193 1968 1916 1938 2105 2135 2096 2055 2030 2007 1985 1893 1617
1220 1274 1285 1343 1534 1348 1381 1379 1435 1235 1357 1408 1242 1008 996 1117 996 1111 1300 1298 1240 1181 1103 994 958 879 821 836 1096 1083 1370 1956 2252 2220 2481 2496 2708 2457 2380 2626 2346 2377 2448 2630 2915 3269 3115 3013 3345 2991 2872 2599 2438 2474 2431 2364 2292 2282 2421 2473 2302 2228 2230 2222 2159 2032 1959 1886 1872 1864 1834 1808 1750 1570
1102 1203 1265 1335 1340 1602 1659 1870 1760 1652 1581 1378 1417 1167 1185 1010 1207 1130 894 1104 1233 1255 1141 1113 1132 964 900 893 1034 1102 1250 1715 2069 2268 2496 2472 2569 2422 2412 2423 2782 2061 2572 2690 2798 3067 2939 2881 3292 3273 2945 2926 2663 2550 2346 2322 2328 2436 2515 2401 2322 2239 1932 1615 1488 1496 1550 1598 1630 1671 1697 1697 1667 1586
971 1049 1172 1323 1375 1461 1529 1594 1593 1693 1788 1681 1579 1524 1374 1281 1025 913 1222 1139 1326 1186 1157 1235 1176 1136 1038 983 948 928 1151 1526 1885 2154 2220 2320 2370 2360 2302 2296 2148 2709 2216 2757 2604 2761 2623 2804 3053 3250 3093 2906 2658 2529 2306 2180 2308 2458 2489 2397 2179 1938 1840 1823 1740 1525 1551 1649 1734 1833 1849 1743 1641 1542
790 938 1080 1160 1295 1379 1486 1858 1938 1699 1707 1975 1900 1815 1330 1234 1394 1135 1064 1016 904 1066 1264 1332 1307 1266 1207 1140 1007 1055 1114 1360 1301 2030 1992 2095 2136 2265 2276 2293 2183 1949 1608 2226 2532 2475 2543 2213 2590 2796 2910 2888 2526 2066 2003 2144 2346 2535 2514 2268 2023 1972 1972 1878 1648 1397 1454 1539 1736 1784 1815 1786 1710 1543
692 802 887 956 1113 1278 1424 1552 1584 1564 1565 1536 1533 1561 1391 1348 1303 1279 1232 1123 1275 1456 1166 1234 1334 1460 1462 1313 1150 1142 1139 1312 945 1226 1934 2020 2014 1990 1953 2245 2120 1813 1902 2267 2601 2300 2171 1961 2482 2629 2916 2355 2202 1943 2092 2282 2466 2540 2342 2050 2015 2016 1929 1772 1471 1324 1414 1475 1624 1642 1604 1552 1452 1279
620 716 808 936 1000 1121 1270 1362 1422 1373 1307 1344 1412 1373 1327 1293 1290 1213 1196 1154 1057 1112 1202 1260 1342 1551 1578 1332 1268 1164 1171 1259 1524 1663 1636 1900 2000 2120 1592 1471 1502 1734 1900 2240 2128 1970 2597 1799 2253 2631 2644 1573 1590 1637 1824 1992 2164 2132 2036 2051 2038 1910 1667 1354 1155 1080 1192 1418 1580 1594 1487 1326 1166 977
642 698 794 805 889 1058 1098 1288 1380 1510 1491 1310 900 905 1092 1175 1269 1308 1359 1138 1028 1096 1178 1171 1264 1402 1419 1342 1445 1460 1196 1029 1192 1514 1540 1025 1200 1259 1300 1436 1482 1510 1565 2029 2086 2066 2013 1963 2374 2663 1911 1464 1454 1461 1537 1717 1871 1951 2005 1980 1854 1591 1301 1104 1023 1102 1256 1426 1542 1554 1430 1318 1149 1051
584 658 750 790 846 912 1033 1107 986 951 1092 830 869 934 1037 1058 1090 1189 1197 1086 946 926 957 965 945 961 921 954 1046 1123 1096 985 1007 861 841 811 984 1252 1069 1218 1303 1338 1369 1446 2024 2120 2074 1735 2070 2214 1332 1320 1279 1375 1525 1659 1858 1953 1923 1810 1593 1369 1176 1016 1027 1302 1442 1517 1541 1537 1374 1202 1192 1076
524 612 813 1148 1265 1248 1175 1024 945 957 814 694 731 886 1023 1008 1052 1137 1194 1146 1112 994 998 1038 1054 1017 1061 1090 1028 996 975 1025 1032 946 862 795 803 940 1136 1099 1450 1440 1098 1328 1467 1661 1824 1742 1468 1711 1329 1302 1368 1402 1476 1644 1755 1831 1781 1652 1482 1278 1081 951 881 1110 1300 1454 1531 1432 1274 1153 1101 1018
483 546 766 936 1214 1336 1277 933 865 825 796 748 692 738 785 813 923 1044 1124 1094 976 940 879 884 755 807 717 912 823 904 812 815 757 740 819 904 777 722 821 1119 1375 1011 946 1176 1630 1516 1785 1556 1249 1458 1400 1423 1351 1265 1424 1528 1679 1677 1609 1472 1400 1255 1105 975 855 944 1150 1347 1462 1383 1141 978 864 770
465 545 654 794 699 582 585 614 617 557 480 494 615 597 609 707 838 959 1077 1100 1044 970 974 946 950 913 988 1071 1121 1234 1146 1070 1030 713 695 745 780 679 579 914 919 949 1327 1255 1536 1716 2075 1841 1576 1347 2189 2081 1572 1015 1112 1405 1474 1389 1240 1207 1330 1237 1131 1064 920 764 969 1167 1229 1193 1002 887 832 713
288 382 540 641 601 462 466 420 391 394 432 460 513 548 601 639 729 850 845 866 863 965 927 1090 1080 1032 1027 1001 976 1012 981 897 863 800 626 630 624 684 762 692 635 870 1100 1190 1114 1706 1755 1444 1691 1221 1489 1669 1633 1108 1024 1003 1143 1256 1272 1148 1068 1072 1074 975 820 814 969 990 854 966 1017 926 818 508
169 350 522 618 600 447 464 507 492 465 438 477 480 512 552 553 561 531 438 385 404 501 745 854 887 1000 1010 984 937 961 944 845 757 623 499 500 502 583 678 699 742 929 1084 1305 848 1833 1980 1280 1699 1171 1274 1316 1239 1114 1111 1076 1116 1120 1079 958 832 758 791 795 701 663 655 728 664 805 1055 984 862 381
28 134 334 472 518 396 446 550 647 645 592 509 473 445 384 160 136 44 26 106 147 265 452 724 828 872 956 989 961 862 818 864 725 613 499 553 533 458 498 652 783 865 1119 1368 882 1818 1742 1644 1450 1536 1348 1368 1427 1074 1054 1042 1010 1096 1164 1140 1056 930 731 649 749 736 590 536 726 930 824 731 520 175
36 112 202 302 68 0 0 25 253 356 464 430 335 258 69 1 2 2 3 8 72 183 320 486 686 849 981 1038 1121 1136 978 769 747 609 483 511 540 605 543 527 660 714 705 781 735 1391 1886 1930 1499 1693 1875 1456 1358 1076 885 811 834 1042 1095 998 934 805 666 626 650 633 576 520 749 850 602 484 243 138
123 76 3 0 0 0 3 3 5 401 467 453 406 298 237 165 2 2 3 6 37 105 260 426 642 763 832 860 1044 1149 1219 1114 951 691 535 392 412 425 394 366 424 637 757 740 744 926 1521 690 1403 1664 1912 1858 1803 1419 1220 1048 711 786 889 972 924 801 702 710 580 526 530 548 679 654 377 278 200 30
124 126 141 138 24 0 0 1 6 6 29 51 1 56 39 47 31 29 20 21 19 78 237 348 466 596 659 714 881 1020 1057 1046 1015 896 762 614 609 546 478 422 333 376 391 574 644 751 1138 1201 1199 1266 1361 1320 1594 1808 1395 1277 901 869 828 780 788 761 674 627 582 551 525 543 527 586 383 234 254 289
186 194 213 255 100 38 12 12 70 192 306 417 394 353 355 292 242 198 133 53 43 63 130 294 438 502 550 612 570 623 707 722 763 918 858 847 748 732 652 498 404 417 433 402 624 698 856 925 1066 1037 1205 1313 1259 1329 1591 1384 1160 1030 998 913 906 940 766 671 637 596 545 471 554 544 419 387 369 76
279 288 304 313 427 532 437 355 327 341 316 225 197 188 232 187 238 313 291 303 300 242 247 251 314 448 462 412 466 555 592 641 802 951 874 801 673 843 847 665 518 514 613 622 554 668 742 876 869 778 832 1055 1118 1143 1236 1215 1148 1072 1097 1072 1032 892 789 796 764 720 655 631 449 434 462 431 394 264
200 324 438 516 459 429 485 315 354 379 303 168 128 156 191 140 187 383 399 322 363 397 399 321 341 420 482 450 531 555 551 599 692 796 914 847 779 1024 983 875 780 712 729 739 788 814 757 840 976 977 944 1066 1136 1082 990 1047 1048 927 908 912 810 773 801 803 762 827 790 671 686 506 382 348 341 286
146 248 380 513 542 512 562 539 442 339 262 201 152 163 192 205 242 326 457 546 554 521 477 478 421 522 533 450 582 666 605 612 674 678 633 805 778 647 833 818 776 754 880 841 771 797 744 738 793 932 1043 1071 1052 1034 1041 1014 975 903 898 828 698 743 779 734 712 728 770 798 731 578 418 372 261 217
94 171 241 351 393 506 460 373 313 363 339 313 319 252 237 215 295 306 333 528 687 636 581 546 560 510 532 596 605 574 583 549 600 694 574 544 564 551 572 572 554 517 618 665 680 722 904 963 861 863 940 1012 1014 723 816 884 882 808 762 839 915 839 818 653 678 701 596 524 477 661 540 385 345 299
20 21 72 320 330 305 289 309 370 414 381 351 286 221 187 261 368 356 488 606 716 702 544 465 524 576 576 602 692 680 659 571 564 613 809 599 537 574 580 492 479 573 580 617 583 524 649 894 935 916 843 765 700 674 677 656 704 701 702 736 515 643 523 528 462 352 272 254 267 350 464 411 331 256
2 17 42 71 76 60 226 318 327 390 334 324 262 179 180 211 269 371 413 346 563 562 559 500 560 544 532 552 636 705 669 635 556 545 628 743 674 593 573 600 622 642 563 536 456 432 479 511 509 504 579 546 445 397 538 538 567 656 676 658 559 468 456 366 291 265 250 200 152 205 225 242 326 213
0 15 29 53 66 60 222 326 333 292 298 256 258 204 243 381 456 596 647 688 584 610 639 601 622 659 663 614 588 577 610 556 552 539 585 753 721 592 553 571 544 576 601 582 488 428 466 494 437 375 390 292 345 382 437 364 368 426 379 384 422 408 339 338 274 252 214 156 145 109 113 151 63 1
1 2 23 25 54 176 247 293 322 337 339 325 279 418 485 584 571 653 703 706 727 710 698 685 682 695 714 702 597 552 581 657 697 649 654 570 495 477 465 629 752 713 633 632 525 541 502 435 403 331 315 292 255 313 322 317 274 319 288 280 288 306 249 267 297 272 278 250 151 91 66 6 9 2
1 1 2 47 116 222 342 399 333 320 357 336 360 462 475 472 570 601 551 768 720 713 662 593 570 475 501 548 542 528 648 636 652 705 678 648 597 513 564 732 735 769 647 648 536 515 510 482 399 344 338 395 333 214 216 251 289 288 293 281 246 208 238 190 201 214 144 150 172 93 62 2 0 0
18 52 108 179 213 263 348 345 292 242 262 407 368 356 492 402 393 501 435 433 478 489 452 434 512 562 538 510 510 500 472 466 432 489 619 642 560 541 554 551 533 635 678 550 532 482 502 548 496 460 428 405 328 304 260 252 296 272 271 291 257 243 206 72 1 12 64 72 72 57 1 2 1 0
152 187 191 178 200 109 77 49 123 276 312 250 325 429 487 490 482 384 408 557 570 580 574 544 508 548 605 604 581 578 556 460 426 386 391 410 405 418 448 488 453 362 384 453 517 486 464 448 456 530 524 488 483 468 377 170 238 200 243 278 250 202 0 45 0 1 0 16 32 1 0 0 10 22
29 24 119 122 122 222 354 353 218 245 364 393 412 506 578 599 491 514 486 413 168 260 503 607 549 528 590 534 472 489 482 430 386 327 309 298 326 344 314 233 160 160 35 310 461 442 460 461 414 373 364 344 366 385 462 435 313 255 198 220 225 182 129 74 42 33 26 1 0 17 31 22 0 16
14 8 10 12 20 94 175 286 328 439 473 495 536 513 664 546 538 514 229 368 539 422 506 558 701 748 692 608 590 521 431 449 406 376 335 260 238 290 307 374 328 406 213 101 178 235 270 274 262 233 242 234 221 226 296 373 439 454 427 344 288 182 161 119 60 15 28 30 36 40 20 18 27 12
16 182 201 118 14 28 144 237 313 396 419 444 456 567 568 492 401 330 446 504 592 729 672 485 399 342 292 271 261 258 245 251 302 311 250 233 212 180 177 242 271 247 208 193 132 117 142 166 155 153 147 159 169 180 160 164 218 216 234 291 206 113 109 85 40 67 86 97 67 0 4 12 15 8
Wind_Speed
14 16 15 17 18 19 21 24 27 29 30 32 32 29 26 27 24 24 25 24 26 29 27 26 26 24 23 21 19 18 16 14 13 13 12 11 11 8 7 6 6 6 6 5 5 5 5 5 6 6 5 5 4 4 3 4 4 3 3 4 6 7 6 6 6 8 10 10 11 12 13 14 15 15
16 17 16 18 18 22 23 26 29 34 33 28 26 27 28 29 26 27 25 24 28 28 29 28 26 29 26 25 23 20 19 15 13 13 14 13 11 7 7 6 6 6 6 6 5 5 4 4 4 4 4 3 3 2 2 2 2 2 1 3 4 5 6 6 8 10 11 12 13 14 14 15 15 15
19 17 15 17 18 23 26 27 29 25 25 26 31 31 30 30 27 27 26 24 26 30 27 28 28 27 28 28 25 24 22 20 17 15 16 14 10 8 8 7 7 7 7 7 6 5 5 4 4 4 3 3 2 1 0 0 0 1 2 2 4 5 8 11 11 11 12 14 14 14 14 14 14 15
22 21 18 17 20 24 26 25 27 25 26 28 30 31 32 32 31 30 27 23 22 31 30 28 29 28 27 28 26 24 25 24 19 18 17 16 13 13 12 9 8 8 7 7 7 6 6 5 4 4 4 3 2 2 1 2 3 5 6 6 7 9 11 13 14 13 14 15 16 15 15 14 15 15
21 22 21 20 20 22 24 26 27 26 27 29 32 33 32 31 33 32 29 24 24 30 34 30 29 30 29 27 27 25 26 26 24 20 19 18 17 16 15 14 11 9 9 8 8 7 7 7 6 5 4 3 2 2 3 4 5 7 8 10 11 12 14 14 14 14 14 15 16 16 16 16 16 17
18 19 20 20 19 21 20 22 23 25 26 28 30 35 35 33 32 31 30 27 28 28 38 34 33 31 31 26 30 28 27 26 27 23 22 22 20 19 18 17 16 12 11 10 9 9 8 9 8 7 6 5 4 4 5 6 7 8 10 11 12 14 15 14 14 13 14 15 15 16 17 17 18 19
18 17 19 21 22 23 20 20 22 23 24 26 28 30 34 35 33 32 30 29 29 29 32 36 33 34 33 28 28 30 29 29 30 26 24 23 24 22 20 20 19 16 14 12 12 11 11 10 10 10 9 8 8 7 7 8 9 10 12 13 14 15 15 15 14 14 15 16 16 16 17 18 17 18
21 19 18 18 21 23 21 19 20 22 23 25 26 27 31 32 32 33 34 33 30 32 32 35 36 38 35 32 29 30 31 30 30 28 28 28 25 24 24 21 21 20 17 15 14 14 14 13 12 12 11 11 11 11 11 10 11 13 14 15 16 17 16 16 15 14 15 15 15 16 16 16 15 16
21 20 19 18 19 21 20 20 19 20 20 23 24 24 27 30 32 34 34 34 34 32 32 35 37 40 38 36 33 32 31 31 31 30 27 28 27 27 26 26 24 22 20 18 16 16 16 16 15 14 14 14 14 14 13 14 14 15 15 16 17 17 18 17 15 14 14 14 15 15 15 13 12 14
22 21 21 20 20 19 20 20 20 21 20 21 22 22 24 27 30 32 33 35 34 33 33 36 37 40 40 39 36 34 33 31 30 30 28 29 29 29 28 27 28 28 27 26 24 22 20 19 17 17 17 16 16 16 16 17 17 17 17 17 17 18 19 18 16 15 14 15 16 16 16 14 13 14
24 24 23 22 21 21 20 21 22 22 21 22 21 22 23 25 27 29 31 35 35 35 34 35 37 39 42 41 37 37 37 33 31 29 30 29 31 31 30 29 30 30 28 25 24 24 25 24 24 21 19 19 19 19 19 19 20 20 19 18 18 19 19 19 18 16 15 15 17 18 17 16 13 14
25 25 25 25 24 23 22 23 23 25 25 25 23 23 25 26 26 26 28 31 34 35 35 33 34 37 40 42 42 43 42 38 34 32 31 29 30 31 31 29 30 33 30 28 28 28 28 28 25 24 23 22 21 21 21 20 21 21 20 20 20 20 20 20 19 17 16 15 16 18 18 17 13 11
29 27 26 25 25 24 21 18 19 21 25 29 27 26 27 26 26 26 25 28 31 35 35 35 37 37 38 41 43 44 42 38 34 38 35 31 30 33 34 33 32 32 31 31 30 30 31 31 30 30 29 28 25 23 23 24 22 21 21 20 20 21 21 21 20 19 17 15 15 17 20 20 17 13
30 30 30 29 22 21 20 19 17 17 19 21 27 28 28 27 26 26 27 27 29 29 31 34 38 37 35 38 42 41 40 41 42 40 38 33 33 36 35 35 34 34 31 31 30 30 33 31 30 30 28 29 29 28 29 26 26 25 23 22 21 21 22 22 22 22 20 18 16 18 20 22 22 20
31 32 32 32 28 25 24 25 20 20 19 21 21 20 21 23 27 27 25 26 26 28 28 31 35 37 35 34 39 42 42 42 42 41 41 38 37 36 36 33 37 36 34 33 32 30 34 33 29 29 29 30 30 29 27 25 25 24 25 24 23 23 23 23 23 24 23 20 18 19 20 20 22 23
33 32 33 33 33 31 29 29 30 26 22 22 22 21 21 21 20 21 25 25 27 27 28 27 28 34 34 34 37 40 43 43 44 44 44 41 39 37 37 36 33 39 37 36 33 29 37 33 29 28 29 32 31 29 27 26 25 25 26 26 26 25 24 24 25 26 25 23 20 19 21 20 20 21
34 34 34 33 33 34 28 29 30 30 29 27 23 23 21 22 23 26 25 21 24 27 26 26 26 28 32 33 35 39 41 45 43 47 44 43 42 41 39 37 37 43 39 36 34 30 33 33 29 27 30 33 33 32 30 27 27 27 26 27 27 27 26 26 27 28 27 25 23 21 21 22 21 22
35 35 34 34 34 35 35 34 32 31 31 31 31 31 30 29 26 24 24 23 22 23 26 25 24 26 31 32 36 39 42 42 40 43 44 45 44 43 39 41 42 45 42 38 38 32 30 32 31 29 32 37 34 32 32 30 28 28 28 29 30 29 27 28 29 30 29 27 26 25 24 23 24 24
35 35 35 34 34 34 36 37 35 33 32 33 33 31 30 29 27 26 26 28 29 30 31 28 24 24 27 28 32 38 43 41 40 42 42 44 45 46 51 49 46 43 40 40 39 28 33 34 32 30 35 35 33 34 36 33 31 30 31 32 32 30 29 29 31 31 30 29 29 29 28 28 28 29
37 36 36 34 34 34 34 33 30 31 34 35 33 30 31 30 29 27 27 26 28 28 30 29 27 27 28 28 29 34 40 43 42 42 47 51 50 49 45 40 43 41 41 40 40 36 33 36 33 34 36 35 33 36 35 36 33 32 32 32 32 31 30 30 32 33 32 31 33 33 33 32 32 33
38 37 37 36 36 35 36 34 34 34 31 34 33 33 32 31 30 29 28 28 27 26 26 24 22 21 22 24 24 28 32 38 43 46 44 40 43 46 44 42 41 39 44 40 39 40 35 36 35 35 35 33 33 35 36 37 35 34 33 32 32 32 33 34 35 35 35 36 36 37 37 36 36 39
38 36 32 34 37 37 37 36 35 34 33 35 34 34 33 32 31 29 30 32 31 30 28 27 24 22 22 23 22 23 28 32 39 44 41 37 43 45 45 43 44 43 44 42 41 40 35 39 37 38 38 35 34 36 37 37 37 36 34 34 34 33 34 35 37 37 38 39 40 41 41 41 41 37
39 38 37 33 35 37 37 36 36 36 37 36 35 34 33 30 30 30 32 33 31 31 29 30 31 29 26 28 28 27 24 27 32 40 37 39 40 39 40 42 46 44 41 42 44 39 37 38 38 41 40 35 36 39 38 37 37 36 35 35 35 34 34 35 37 39 39 40 41 43 44 44 43 38
41 40 40 38 37 35 35 35 35 36 36 37 37 35 35 32 30 33 34 32 31 29 29 29 30 30 31 31 31 31 30 29 32 36 38 38 41 39 35 38 41 42 44 47 47 42 41 40 41 39 40 40 36 38 39 37 37 37 36 36 34 34 35 37 37 38 40 40 41 42 44 44 44 41
41 41 41 42 40 37 37 36 35 34 34 35 37 35 35 34 34 36 36 34 29 31 29 29 30 32 33 32 30 30 31 31 32 35 36 37 39 38 35 37 38 40 41 47 47 46 44 41 41 40 38 38 40 41 40 39 38 37 36 35 34 35 35 36 36 36 37 38 39 41 42 42 43 44
41 41 41 41 41 38 37 37 36 35 35 35 39 37 34 35 36 37 38 37 37 35 34 32 30 30 32 33 32 30 30 31 31 31 34 37 39 38 36 35 36 38 39 48 48 47 47 42 41 40 39 38 39 42 42 38 37 37 37 34 33 35 35 36 36 36 36 36 36 38 39 40 40 47
nan 39 39 39 36 37 37 38 38 38 38 39 41 38 37 36 36 nan nan 38 36 35 34 34 32 31 33 33 31 30 30 31 31 33 34 37 40 39 37 35 35 36 42 50 47 47 45 42 41 40 38 37 39 41 39 39 37 39 37 35 35 36 35 35 36 36 37 38 37 39 39 39 41 44
nan 35 36 37 nan nan nan nan 37 38 38 40 38 39 nan nan nan nan nan nan nan 36 35 32 32 31 32 34 33 31 31 32 34 33 33 37 41 41 41 37 35 36 41 43 43 43 42 41 40 39 40 40 38 38 36 35 40 39 36 38 38 36 36 36 37 38 38 40 41 40 39 39 39 42
32 nan nan nan nan nan nan nan nan 37 36 34 34 33 34 34 nan nan nan nan nan 35 35 34 33 32 31 33 34 35 35 34 35 34 35 39 39 41 38 36 38 38 40 40 40 40 40 39 41 42 41 41 40 38 39 36 37 37 39 41 36 34 35 36 37 39 40 40 40 40 40 41 41 nan
25 26 26 27 nan nan nan nan nan nan nan nan nan nan nan nan nan nan nan nan nan nan 35 34 32 32 32 34 36 36 35 35 33 34 35 40 42 43 42 42 40 39 38 37 36 36 38 41 44 43 41 38 37 39 38 38 36 39 41 37 39 41 37 37 37 38 40 40 40 37 38 42 43 41
31 29 28 30 nan nan nan nan nan 31 32 33 34 34 33 33 33 33 33 nan nan nan 33 34 33 33 34 35 35 35 34 32 31 34 34 37 41 43 42 41 40 41 40 35 34 34 39 41 41 44 40 38 37 37 39 38 37 40 37 38 42 37 37 38 38 38 38 40 41 41 40 40 42 nan
30 29 28 27 30 30 32 33 35 36 36 35 33 32 31 32 32 30 27 26 31 31 33 33 34 34 35 34 34 34 33 31 32 34 35 35 36 41 45 42 40 38 38 36 32 30 30 36 39 42 38 38 37 37 41 39 36 37 37 37 36 37 41 39 39 39 40 42 42 43 42 40 40 41
28 29 28 27 28 28 28 30 31 34 34 33 32 31 30 31 31 32 32 31 31 31 32 32 33 33 33 32 32 32 32 31 32 34 33 34 35 38 42 40 38 36 35 35 34 33 36 36 39 40 39 39 38 39 40 39 35 35 36 37 36 35 38 39 40 40 41 42 43 45 43 42 40 42
24 24 24 24 25 26 28 27 28 28 30 29 29 29 29 29 30 31 31 30 30 31 31 30 30 31 31 29 30 31 30 31 34 33 32 33 37 36 39 40 39 37 37 36 35 36 38 38 40 41 42 45 44 40 39 36 35 36 36 38 36 35 38 39 39 39 40 42 45 44 42 40 38 37
nan 23 23 22 22 23 24 24 24 25 27 27 26 26 27 27 27 27 29 30 30 29 28 29 30 30 29 28 28 28 29 29 32 33 32 32 35 36 37 39 36 37 37 34 33 34 38 40 45 50 51 51 50 49 48 43 36 38 39 37 38 40 42 41 41 41 42 39 41 46 43 43 43 41
nan nan nan 19 19 18 18 18 18 20 22 23 22 22 24 25 25 25 26 27 28 27 26 26 26 27 27 27 28 28 28 30 30 29 31 31 33 33 35 34 33 33 34 33 31 34 36 38 43 45 47 47 46 43 41 47 44 42 43 42 42 45 45 45 44 45 45 43 40 41 45 44 45 43
nan nan nan nan nan nan 15 14 16 17 18 19 19 18 20 20 21 22 22 23 23 23 24 25 25 25 25 26 27 28 29 28 28 27 27 29 32 32 34 36 35 35 34 31 30 32 35 34 37 38 41 44 44 40 44 48 43 42 43 46 46 48 48 47 48 47 45 46 45 44 47 47 44 42
nan nan nan nan nan nan 14 13 14 13 14 14 15 15 17 17 18 19 20 20 18 19 22 23 23 24 24 26 27 28 27 26 25 25 24 26 28 31 32 34 34 35 34 33 32 31 32 32 33 34 36 39 41 42 44 48 47 45 43 48 49 47 48 49 49 48 46 46 47 43 45 48 nan nan
nan nan nan nan nan 11 11 11 12 12 11 11 12 14 14 15 15 17 18 17 17 19 21 22 22 23 24 25 27 27 26 26 25 24 24 24 25 26 27 28 29 31 32 31 32 30 31 31 30 32 34 39 38 40 47 51 52 52 49 47 50 49 46 50 51 49 49 49 48 nan nan nan nan nan
nan nan nan nan 9 8 7 8 9 10 11 11 12 13 14 16 17 18 18 17 16 17 19 20 21 22 23 24 25 25 24 22 23 24 23 23 23 22 22 25 26 29 31 31 32 31 34 27 27 30 34 41 50 55 58 58 56 55 56 54 48 51 49 49 52 52 47 46 48 nan nan nan nan nan
nan nan 8 8 7 5 5 7 9 10 10 12 13 14 15 16 18 18 18 17 16 18 19 20 20 21 23 24 24 23 22 22 24 24 22 22 22 21 20 22 24 25 27 28 32 33 29 27 31 40 45 49 54 57 57 57 57 55 57 56 60 57 54 nan nan nan nan nan nan nan nan nan nan nan
8 5 5 6 5 4 nan nan 8 9 11 12 14 15 16 17 18 18 19 19 19 20 19 20 21 23 25 25 24 23 22 22 24 24 24 25 26 25 24 24 22 23 27 28 31 34 39 40 39 39 39 41 44 49 50 51 53 54 55 55 53 58 nan nan nan nan nan nan nan nan nan nan nan nan
nan nan 4 4 4 4 4 4 6 7 9 10 11 12 13 13 14 15 16 16 16 14 16 17 18 19 21 22 21 20 20 22 24 24 25 26 26 24 22 21 20 21 nan 27 30 32 35 37 37 38 37 37 40 46 49 50 52 53 55 55 53 53 56 nan nan nan nan nan nan nan nan nan nan nan
nan nan nan nan nan nan 5 5 5 6 7 9 10 9 9 9 10 12 14 15 14 13 12 13 15 17 18 19 19 20 21 23 23 23 22 23 24 21 18 19 21 20 23 27 28 30 32 35 35 37 39 38 40 46 48 51 52 51 50 51 52 54 53 51 nan nan nan nan nan nan nan nan nan nan
nan 2 1 2 nan nan 4 4 5 6 7 7 7 8 8 8 8 10 12 14 12 11 12 14 16 18 20 20 20 20 22 21 21 20 18 18 19 20 18 18 21 23 25 27 30 32 33 37 39 42 44 43 43 46 46 49 49 48 48 51 53 52 48 nan nan nan nan nan nan nan nan nan nan nan
Wind_Direction
303 291 286 277 271 268 265 261 254 246 239 236 235 240 247 252 246 243 243 247 248 249 255 247 243 253 251 249 249 251 254 258 266 263 265 263 262 274 303 318 326 338 350 356 1 8 12 21 28 42 57 70 70 76 66 71 87 61 52 43 25 2 3 7 343 329 328 333 338 341 342 346 349 351
303 295 287 279 269 264 260 260 256 250 251 257 257 251 245 240 244 245 241 239 253 248 250 253 244 246 249 248 247 249 249 251 262 255 259 260 260 278 292 296 300 307 318 331 344 353 2 13 16 17 28 37 48 56 46 55 78 105 68 23 12 2 341 315 315 318 320 323 324 327 334 339 341 341
305 301 294 284 274 263 255 254 263 260 257 252 253 253 253 255 247 239 239 234 243 254 248 249 251 244 243 247 245 246 247 248 256 254 254 258 265 274 264 279 285 295 306 316 324 334 341 340 350 360 6 26 40 51 71 339 304 286 300 329 327 334 316 310 312 315 318 321 322 324 329 333 333 333
305 304 300 289 277 274 273 266 267 267 262 260 256 252 251 251 253 250 239 235 232 251 250 247 246 249 243 248 246 245 246 247 257 253 255 257 259 257 251 269 287 291 295 299 305 309 316 322 326 338 340 347 353 327 313 272 278 291 300 302 307 305 305 308 310 314 317 317 318 322 327 327 325 328
301 301 300 295 288 281 278 273 271 269 264 261 262 263 258 252 251 251 249 236 227 242 251 247 246 247 247 245 252 247 246 248 249 253 252 255 256 256 254 251 270 285 287 288 288 290 292 297 301 303 304 313 303 280 270 272 278 284 291 296 300 301 303 307 309 313 314 313 315 322 324 322 325 329
292 294 297 296 290 284 279 272 269 269 264 258 256 261 263 261 255 255 251 242 233 233 250 249 247 246 250 243 251 252 248 247 250 250 251 252 257 256 255 253 250 272 276 282 283 282 284 284 287 290 294 295 293 284 280 281 282 285 292 297 300 302 304 305 308 310 309 309 315 319 317 321 329 333
294 292 290 289 288 286 281 276 272 269 266 261 257 255 257 260 261 260 261 250 236 232 240 250 248 249 249 248 245 251 251 247 248 248 248 251 252 254 257 256 252 260 268 274 276 277 276 274 276 281 287 290 289 285 283 284 287 291 294 298 300 302 305 308 312 314 312 313 317 318 317 322 332 336
292 291 286 283 284 286 285 279 274 272 269 267 262 258 255 254 255 257 260 263 249 237 236 247 251 250 247 245 244 244 248 249 251 250 246 247 249 252 255 256 254 257 266 266 270 272 273 273 275 277 280 282 284 285 285 285 286 288 291 295 298 302 306 310 315 318 317 317 317 317 317 323 334 335
288 287 288 282 280 282 285 282 278 275 275 271 268 264 261 256 253 252 253 254 255 246 239 240 247 250 250 247 243 246 246 247 250 250 250 251 250 249 250 249 250 250 260 263 265 266 269 272 274 276 276 277 277 279 282 285 287 289 290 292 297 300 304 307 311 314 315 313 311 310 311 318 331 329
288 285 285 284 281 279 278 277 276 276 277 276 274 272 268 264 257 252 251 252 250 249 243 241 241 249 250 249 248 247 248 246 246 247 249 248 250 250 248 249 249 250 251 252 254 256 259 267 275 276 276 277 277 279 281 282 284 287 289 293 293 296 298 303 307 310 311 309 309 310 313 319 330 328
288 286 284 282 280 278 276 273 273 273 273 276 278 277 273 270 265 258 254 252 250 248 245 242 242 243 248 251 247 247 247 245 246 245 245 246 250 250 249 246 248 250 250 252 256 256 259 263 262 268 274 276 277 277 278 281 285 286 291 294 295 297 299 303 306 308 309 309 309 311 315 319 325 326
285 285 283 281 279 279 276 273 273 274 274 273 276 277 277 275 272 267 260 254 250 247 245 243 241 243 243 247 250 249 248 246 245 248 246 245 247 251 251 250 249 251 252 251 252 253 253 255 260 262 265 269 272 276 276 281 283 288 290 293 295 297 300 303 304 304 303 305 308 310 309 311 316 319
281 280 280 279 278 279 281 283 280 277 276 271 269 272 276 278 277 273 267 261 254 250 245 243 246 244 244 244 245 248 250 250 246 247 247 243 245 247 246 246 248 250 251 250 250 251 254 253 254 255 257 260 268 269 276 271 281 285 287 292 293 295 298 299 299 298 298 300 302 301 302 309 315 316
279 278 277 276 279 279 277 272 269 268 273 280 276 268 266 269 271 272 271 267 262 256 248 244 245 247 246 244 242 240 244 247 245 245 247 244 243 246 245 242 247 251 251 250 250 251 253 254 253 255 256 258 263 261 266 267 272 278 287 287 289 291 292 293 293 294 296 299 303 302 304 310 313 315
276 275 275 273 271 268 266 267 269 268 267 272 275 278 275 269 267 268 270 269 268 263 257 250 246 245 246 247 243 237 236 244 248 248 248 244 243 246 249 246 245 252 255 251 247 246 254 256 256 257 258 259 260 260 262 269 275 276 278 281 283 284 287 289 291 293 296 300 303 302 302 305 309 311
275 274 272 272 271 269 268 267 267 267 267 268 273 274 270 265 260 259 264 264 262 264 260 256 251 248 246 245 247 241 236 238 243 246 246 246 245 245 248 249 249 249 255 252 250 247 253 258 259 260 262 262 261 262 263 271 274 275 276 277 279 282 285 287 289 291 295 297 298 298 299 303 305 305
274 272 271 269 269 269 269 266 264 264 264 266 267 266 260 259 258 255 254 258 264 261 259 255 251 253 248 244 245 246 240 238 239 243 245 246 244 244 245 247 249 249 253 251 248 245 253 260 261 261 262 263 263 263 264 271 274 276 278 278 279 280 282 284 286 289 293 295 297 298 299 302 302 301
272 272 270 268 268 268 268 266 264 262 262 261 261 263 264 264 261 258 257 252 251 255 258 254 250 252 254 245 241 244 246 244 241 240 242 244 244 246 246 245 247 249 255 257 251 243 248 255 255 256 258 260 262 264 266 272 272 274 275 276 276 278 279 279 282 287 292 296 298 299 298 297 299 299
272 271 270 269 268 266 266 266 266 263 261 260 261 260 261 263 263 262 260 256 254 255 257 255 248 243 246 244 240 240 244 246 245 242 238 240 243 243 242 243 245 249 254 257 257 251 250 254 254 253 255 258 260 261 260 264 268 269 271 273 274 275 276 278 282 287 291 296 297 296 296 296 295 293
272 271 270 268 267 266 265 264 263 261 259 258 258 258 260 261 262 263 266 264 258 254 255 255 251 246 245 246 243 242 240 242 244 243 240 238 242 246 248 248 250 251 254 258 258 253 252 255 255 253 255 259 260 260 260 261 265 267 269 270 272 274 275 277 281 285 289 291 292 293 293 293 292 291
271 270 270 268 266 264 263 263 262 261 256 258 258 257 257 258 259 259 260 265 264 259 255 253 251 245 243 245 246 245 243 240 243 243 243 242 246 247 248 249 251 252 254 255 255 252 249 255 257 256 256 258 259 261 261 260 262 265 265 268 271 274 275 276 279 283 285 286 288 289 289 289 289 288
270 270 270 268 266 264 262 263 263 261 258 258 257 257 257 256 257 258 261 260 260 264 259 254 251 247 245 245 243 245 246 243 242 244 246 245 246 246 248 246 250 249 252 252 256 254 250 252 256 256 254 255 254 259 261 261 261 262 264 267 269 271 274 276 279 281 283 285 286 287 287 288 287 286
269 268 267 267 266 264 261 261 259 259 257 255 255 255 255 255 256 257 256 258 257 257 254 251 249 248 249 249 248 247 250 250 243 244 244 246 248 249 248 247 245 245 247 254 261 255 249 252 253 256 256 254 253 256 261 263 262 262 263 264 265 270 274 277 280 281 282 285 287 289 291 292 290 283
269 268 267 266 266 265 262 259 258 257 258 258 255 253 254 254 254 254 254 256 257 257 259 256 252 248 248 248 250 249 248 248 248 246 245 245 248 248 248 246 246 246 247 253 264 256 248 251 252 256 255 254 254 256 260 262 262 263 263 265 265 270 272 274 274 280 284 287 290 292 296 297 291 285
268 267 266 265 264 264 264 263 261 260 259 259 258 258 258 257 253 249 250 249 245 250 251 253 254 251 250 249 249 250 249 250 250 247 245 244 247 249 247 244 242 240 242 250 264 255 250 252 252 255 254 252 251 255 256 259 261 263 264 266 267 269 271 273 274 275 280 287 291 296 297 296 296 290
270 268 266 264 263 261 261 262 262 261 259 258 257 257 257 254 251 252 252 250 250 251 253 254 254 251 249 248 248 249 250 251 253 251 245 241 243 244 246 245 241 239 241 246 260 254 250 250 253 257 256 257 252 252 255 257 260 264 264 264 265 268 272 274 275 278 280 281 284 291 296 298 297 296
nan 269 266 264 259 258 257 257 257 256 255 255 257 258 257 255 254 nan nan 254 252 251 252 252 252 252 250 248 247 248 247 249 250 249 243 239 240 241 241 243 239 236 234 242 249 250 252 250 253 256 257 258 256 254 254 258 258 264 265 266 265 266 270 273 277 280 281 283 283 290 287 287 289 288
nan 271 268 266 nan nan nan nan 255 254 255 256 255 255 nan nan nan nan nan nan nan 253 252 250 251 252 252 249 247 246 247 246 250 250 245 239 237 237 238 239 240 242 241 241 245 247 251 250 253 252 253 258 258 259 258 257 255 264 267 267 267 269 271 274 277 279 282 283 284 284 285 284 283 283
275 nan nan nan nan nan nan nan nan 251 254 257 256 257 257 256 nan nan nan nan nan 254 254 252 249 249 249 247 244 241 241 241 246 249 245 244 237 236 238 238 238 237 238 242 245 247 247 248 246 249 251 254 258 259 259 258 261 261 266 269 267 272 275 275 278 280 282 284 286 289 290 288 288 nan
265 269 271 270 nan nan nan nan nan nan nan nan nan nan nan nan nan nan nan nan nan nan 253 252 249 248 246 245 243 240 241 244 247 249 248 245 239 235 235 236 237 238 239 237 240 243 245 242 241 247 252 253 256 259 261 259 259 259 264 270 268 265 271 274 278 279 283 285 285 284 284 286 288 289
270 272 273 273 nan nan nan nan nan 251 248 246 246 246 247 250 252 253 253 nan nan nan 251 250 248 246 245 244 241 240 242 244 246 250 248 243 239 238 236 236 238 243 244 244 244 246 246 243 242 243 247 252 256 256 259 260 259 260 262 265 269 270 273 276 276 279 279 278 279 277 278 281 282 nan
269 269 271 274 272 268 264 262 258 254 250 247 245 247 247 248 250 251 250 248 252 254 254 250 246 245 246 246 244 242 243 244 247 251 251 244 236 236 238 236 240 245 245 247 249 251 250 251 250 249 246 247 252 254 255 257 256 258 261 266 269 265 269 277 277 277 279 278 278 279 279 281 279 275
264 267 271 273 271 270 265 258 253 250 246 243 245 246 246 247 249 251 252 252 251 250 250 250 249 247 247 245 243 242 243 245 247 251 250 245 239 236 237 237 239 245 248 249 251 252 253 251 250 252 247 244 247 253 256 253 254 258 264 268 270 270 269 274 276 276 277 276 275 274 276 275 275 278
270 272 273 275 275 270 265 258 253 247 246 244 244 246 247 248 247 249 250 250 249 251 251 250 248 247 247 244 243 242 241 242 245 248 250 244 241 237 239 236 238 243 244 244 248 251 252 251 248 246 243 243 244 249 254 255 254 259 263 267 271 269 268 272 275 282 284 284 282 276 275 272 269 273
nan 278 275 272 271 268 264 257 250 247 247 247 246 245 245 247 250 250 251 251 250 251 251 251 248 246 246 243 239 236 237 239 244 245 246 240 237 234 231 230 235 241 245 245 247 250 253 253 248 246 243 240 237 236 238 243 252 256 259 263 265 266 263 262 264 262 262 261 270 277 275 275 275 274
nan nan nan 278 276 270 266 258 250 248 249 248 247 245 247 250 252 252 253 254 251 250 251 252 250 246 244 241 237 236 235 238 241 243 241 237 233 230 229 231 236 240 244 245 248 251 251 250 249 247 243 240 241 241 244 239 243 253 258 256 259 261 262 264 264 267 268 267 263 270 274 275 277 279
nan nan nan nan nan nan 267 259 254 250 248 249 248 248 250 250 252 253 254 257 254 252 249 250 250 251 248 243 238 236 238 241 241 240 238 234 231 229 229 231 236 241 244 245 247 250 254 255 251 246 241 237 237 241 241 241 243 242 256 259 260 264 266 265 267 264 265 269 270 272 275 276 276 276
nan nan nan nan nan nan 264 257 252 249 249 250 250 251 252 251 250 249 251 253 253 250 250 249 246 245 244 242 239 236 236 240 237 234 235 234 232 232 232 234 236 240 243 246 250 252 256 257 251 244 240 238 237 238 243 241 247 246 252 263 264 266 266 269 268 269 268 266 267 265 271 275 nan nan
nan nan nan nan nan 276 267 260 255 252 250 249 248 249 246 245 239 241 246 248 246 247 247 245 243 239 237 238 238 237 237 238 235 229 229 229 227 227 230 233 236 241 245 247 250 251 253 254 251 244 242 240 238 236 243 246 244 244 245 255 269 266 269 268 268 267 270 270 268 nan nan nan nan nan
nan nan nan nan 301 284 266 254 249 243 238 237 236 232 229 224 227 229 233 234 237 244 243 242 236 232 231 232 230 230 234 232 226 224 227 225 223 224 227 234 237 242 246 248 249 248 251 251 251 249 244 239 236 237 242 244 245 244 247 240 252 272 270 267 270 273 267 270 273 nan nan nan nan nan
nan nan 318 315 301 279 256 247 244 238 231 229 225 222 222 221 220 220 216 214 217 223 227 230 230 227 226 228 229 231 233 229 221 218 219 221 223 228 232 236 236 243 249 251 250 249 248 246 245 247 244 243 245 243 242 242 242 246 245 247 245 251 263 nan nan nan nan nan nan nan nan nan nan nan
328 326 311 307 304 286 nan nan 240 232 228 225 226 221 219 216 216 202 205 199 206 215 225 227 227 227 229 229 231 235 232 224 217 214 217 218 221 228 230 229 226 233 242 244 245 243 241 241 245 246 248 249 248 244 241 246 249 246 248 249 248 250 nan nan nan nan nan nan nan nan nan nan nan nan
nan nan 285 284 273 263 248 239 233 229 224 223 223 222 223 224 232 232 238 237 231 222 224 225 230 228 227 232 235 234 226 218 215 213 215 222 227 228 231 232 228 231 nan 243 244 245 240 239 242 247 245 241 237 244 244 243 247 251 252 251 252 253 252 nan nan nan nan nan nan nan nan nan nan nan
nan nan nan nan nan nan 217 217 218 218 214 214 212 209 216 230 240 245 240 236 231 228 232 230 232 234 231 229 227 219 213 212 212 212 219 229 240 240 237 239 243 244 248 251 251 249 243 239 240 247 247 244 244 246 246 246 244 248 253 256 257 257 258 260 nan nan nan nan nan nan nan nan nan nan
nan 332 283 222 nan nan 202 210 221 215 208 204 201 207 223 234 229 228 230 228 226 227 233 237 238 236 233 228 221 208 206 205 205 210 224 237 246 250 251 249 250 254 258 262 260 254 245 240 237 240 245 246 246 248 244 247 251 252 255 259 260 260 261 nan nan nan nan nan nan nan nan nan nan nan